Showing default

FENGYUN 3G, 56232

Orbit data source: Space-Track

FENGYUN 3G, 56232 is a payload satellite owned by CNMSC (CN) in LEO that was launched on Sun, 16 Apr 2023 UTC via a CHANG ZHENG 4B launch vehicle from the Jiuquan Satellite Launch Center, China (JSC). Payload-class satellites include a variety of spacecraft equipped with specific instruments for various scientific and technological missions. These include communications satellites like Starlink; space stations such as the ISS; scientific satellites like the Hubble; Earth observation satellites from companies like Planet Labs, Umbra, and HawkEye 360; GPS; miniature CubeSats for education and research; and military/defense satellites.

Loading next visibility...
Identifier
56232, 2023-055A
Orbit
LEO
Country
Flag of CNCN / PRC
Related business
Manufacturer
SISE
Mission
Operational Civil Weather
Bus & Motor
SAST-3000, Unknown motor
Mass
3,850 kg wet, 3,110 kg dry
Launch date (UTC)
2023-04-16 (3 years ago)
Launch vehicle
CHANG ZHENG 4B
Launch site
Jiuquan Satellite Launch Center, China (JSC)
Object type
Payload
Rocket body
Debris
Shape & HBR
Box + 2 Pan, 6.8 m
Radar Cross Section
27.688 m², Large (>1 m²)

Expand to show TLE details & history
Last TLE update: 8 hours ago

TLE from 8 hours ago
0 FENGYUN 3G
1 56232U 23055A   25311.27581660  .00040059  00000-0  62220-3 0  9993
2 56232  49.9958  50.3350 0020471 343.0176  17.0104 15.53274241145511
Epoch: 2025-11-07T06:37Z
TLE epoch observation values (Epoch: 2025-11-07T06:37:10.554Z)
Latitude
-0.00001°
Longitude
-95.68109°
Altitude
394.455 km
Speed
7.683 km/s
True Right ascension
03h 21m 20s
True Declination
0° 00' 00"
Sunlit
Object was in full shadow at epoch
Visualization orbit readout
Latitude
Unknown
Longitude
Unknown
Altitude
Unknown
Speed
Unknown
Apparent Right ascension
Unknown
Apparent Declination
Unknown
Sunlit
N/A
Visualization observer readout
Local Sidereal Time
11:01:44
Azimuth
Unknown
Elevation
Unknown
Doppler factor
Unknown
Orbital elements
Apogee altitude
421.848 km
Perigee altitude
394.064 km
Semi-major axis
6,786.093 km
Eccentricity
0.00205
Inclination
49.9958°
RAAN
50.335°
Arg. of periapsis
343.0176°
True anomaly
17.07919°
Mean anomaly
17.0104°
Eccentric anomaly
17.04478°
Mean motion
3.88252 °/min
Orbital period
92.72 mins
BSTAR
0.0006222
Loading maneuver chart data...
Computing Atmospheric mass density...
Loading historical data...
Loading historical data...
Loading historical data...
Loading historical data...
Loading historical data...
Loading historical data...
Loading historical data...
Other satellites on launch #55 in the year 2023 (2023-04-16 UTC)

Documentation

Showing up to 5 results
|